DW9791 Weather Reports


time (UTC)temp
C
wind
direction
speed
KPH
gust
KPH
rain 1hr
cm
rain 24hr
cm
rain mn
cm
humidity
%
barometer
mb
20260505193244 11 279 0.0 0.0 0.00 0.00 0.00 81 1017.3
20260505190242 11 279 0.0 0.0 0.00 0.00 0.00 80 1017.0
20260505183238 11 279 0.0 0.0 0.00 0.00 0.00 81 1017.0
20260505180234 11 275 1.6 4.8 0.00 0.00 0.00 82 1016.8
20260505173231 11 264 0.0 6.4 0.00 0.00 0.00 80 1016.4
20260505163221 10 74 0.0 1.6 0.00 0.00 0.00 85 1016.1
20260505160216 9 76 0.0 0.0 0.00 0.00 0.00 86 1016.0
20260505150238 8 90 0.0 1.6 0.00 0.00 0.00 88 1015.7
20260505140229 8 321 0.0 3.2 0.00 0.00 0.00 88 1015.2
20260505130220 7 321 0.0 0.0 0.00 0.00 0.00 87 1015.0
20260505123216 7 321 0.0 3.2 0.00 0.00 0.00 88 1015.2
20260505120241 7 321 1.6 3.2 0.00 0.00 0.00 89 1015.3
20260505113237 7 315 0.0 0.0 0.00 0.00 0.00 90 1015.5
20260505093220 8 317 0.0 0.0 0.00 0.00 0.00 90 1015.9
20260505090215 8 317 0.0 4.8 0.00 0.00 0.00 90 1016.2
20260505083240 8 305 0.0 0.0 0.00 0.00 0.00 91 1016.2
20260505080237 8 306 0.0 4.8 0.00 0.00 0.00 90 1016.5
20260505073232 8 310 0.0 0.0 0.00 0.00 0.00 90 1016.3
20260505070229 8 310 0.0 3.2 0.00 0.00 0.00 90 1016.0
20260505063224 8 325 0.0 0.0 0.00 0.00 0.00 88 1015.9
20260505053245 10 325 0.0 1.6 0.00 0.00 0.00 85 1016.6
20260505050241 10 325 3.2 4.8 0.00 0.00 0.00 82 1016.8
20260505040232 11 318 0.0 1.6 0.00 0.00 0.00 82 1016.2
20260505030223 11 329 0.0 3.2 0.00 0.00 0.00 78 1015.5
20260505023219 12 304 0.0 4.8 0.00 0.00 0.00 78 1015.5
20260505020244 12 304 3.2 3.2 0.00 0.00 0.00 77 1015.5
20260505013240 12 5 0.0 8.0 0.00 0.00 0.00 76 1015.2
20260505003231 14 319 0.0 4.8 0.00 0.00 0.00 73 1015.5
20260504230219 13 360 4.8 14.5 0.00 0.00 0.00 72 1015.5
20260504223245 13 315 0.0 14.5 0.00 0.00 0.00 73 1015.6
20260504220241 13 176 0.0 19.3 0.00 0.00 0.00 70 1015.8
20260504213237 13 205 8.0 11.3 0.00 0.00 0.00 71 1015.9
20260504203229 13 163 3.2 14.5 0.00 0.00 0.00 74 1016.3